Location: Clarks Summit,Pa.
(41.5000°N, 75.6000°W)
Time: 13:43:34
(UTC-05:00)

BlueWalker 3 - Pass Details

Date: 02 December 2022
Orbit: 499 x 517 km, 53.2° (Epoch: 28 January)

Event Time Altitude Azimuth Distance (km) Brightness Sun altitude
Rises 18:54:28 0° 310° (NW) 2,626 6.2 -25.8°
Reaches altitude 10° 18:57:14 10° 329° (NNW) 1,734 4.9 -26.3°
Enters shadow 18:57:49 12° 336° (NNW) 1,586 4.6 -26.5°
